[[{"header":{"parameterUnit":"m.s-1","parameterCategory":1,"la1":30.2991,"la2":30.254,"lo1":-89.0895,"lo2":-89.0444,"dy":0.0017,"dx":0.0017,"nx":28,"ny":28,"refTime":"2023-10-23T03:00:00:Z","depth":0,"parameterNumber":2,"parameterNumberName":"U-component_of_WINDS"},"data":[0,0,0,0,0,0,0,0,0,0,0,0,0,0,0,0,0,0,0,0,0,0,0,0,0,0,0,0,0,0,0,0,0,0,0,0,0,0,0,0,0,0,0,0,0,0,0,0,0,0,0,0,0,0,0,0,0,0,-6.8357,-6.8361,0,-6.8703,-6.8707,-6.8711,-6.8812,-6.881,-6.8808,-6.8806,-6.9157,-6.9167,-6.9178,0,0,0,0,0,0,0,0,0,0,0,0,0,-6.778,-6.779,-6.8356,-6.8361,-6.8365,-6.8703,-6.8707,-6.8712,-6.8812,-6.881,-6.8808,-6.8806,-6.9153,-6.9166,-6.9179,0,0,0,0,0,0,0,0,0,0,0,0,0,-6.8069,-6.7794,-6.8356,-6.8456,-6.8468,-6.8702,-6.8708,-6.8713,-6.8813,-6.881,-6.8807,-6.8805,-6.9149,-6.9165,-6.9181,-6.9338,0,0,-6.9232,-6.9239,0,0,0,0,0,0,0,0,-6.8052,-6.809,-6.8437,-6.8449,-6.8464,-6.8712,-6.8633,-6.8923,-6.8813,-6.8682,-6.8806,-6.8803,-6.901,-6.9038,-6.9109,-6.9354,-6.9369,-6.9233,-6.9243,-6.925,-6.9255,0,0,0,0,0,0,0,-6.8032,-6.8076,-6.8494,-6.8442,-6.8458,-6.8483,-6.8521,-6.8688,-6.8857,-6.8693,-6.8701,-6.8741,-6.9017,-6.9093,-6.9118,-6.9375,-6.9233,-6.9247,-6.9257,-6.9264,-6.977,-6.9774,0,0,0,0,0,0,-6.7996,-6.8058,-6.8483,-6.8504,-6.8247,-6.8496,-6.8538,-6.8635,-6.8856,-6.8887,-6.8743,-6.8744,-6.9066,-6.9099,-6.9131,-6.9331,-6.925,-6.9265,-6.9275,-6.9767,-6.9771,-6.9775,0,0,0,0,0,0,-6.7983,-6.8032,-6.8469,-6.8284,-6.8341,-6.8509,-6.8616,-6.8643,-6.8719,-6.8894,-6.8924,-6.8789,-6.9065,-6.9107,-6.9287,-6.9344,-6.9273,-6.9288,-6.9763,-6.9768,-6.9773,-6.973,0,0,0,0,0,0,-6.7966,-6.8027,-6.8088,-6.8284,-6.8351,-6.8619,-6.862,-6.8652,-6.8748,-6.8753,-6.8945,-6.8974,-6.9066,-6.9262,-6.9303,-6.9365,-6.9301,-6.9758,-6.9765,-6.9771,-6.9727,-6.9733,-6.9738,0,0,0,0,0,-6.7945,-6.8061,-6.8091,-6.8141,-6.8431,-6.8622,-6.866,-6.8765,-6.8752,-6.8815,-6.8928,-6.8968,-6.9332,-6.9279,-6.9327,-6.9395,-6.9755,-6.9763,-6.9771,-6.9724,-6.9732,-6.9738,0,0,0,0,0,0,-6.7864,-6.8088,-6.8124,-6.8307,-6.8445,-6.8638,-6.8721,-6.8769,-6.8912,-6.891,-6.9034,-6.9076,-6.9247,-6.934,-6.9277,-6.9561,-6.9545,-6.9562,-6.9493,-6.9502,-6.9507,-6.948,-6.9315,0,0,0,0,0,-6.7868,-6.8006,-6.8194,-6.8337,-6.8405,-6.8551,-6.8638,-6.8708,-6.8855,-6.8913,-6.9039,-6.918,-6.9326,-6.942,-6.9564,-6.9743,-6.9786,-6.9813,-6.9819,-6.9823,-6.9835,-6.9939,-6.9953,-6.9801,-6.9801,-6.9801,0,0,-6.7876,-6.8016,-6.8094,-6.8324,-6.8439,-6.8579,-6.8599,-6.8745,-6.8849,-6.8935,-6.9112,-6.9211,-6.9376,-6.9556,-6.9642,-6.9638,-6.9888,-6.9833,-6.9834,-6.9846,-6.9948,-6.9963,-6.9975,-6.9806,-6.9805,-6.9804,0,0,-6.7962,-6.8082,-6.8216,-6.8332,-6.8508,-6.8605,-6.8637,-6.8826,-6.8895,-6.9076,-6.9144,-6.927,-6.9519,-6.9635,-6.9726,-6.9863,-6.9905,-6.9907,-6.9935,-7.0034,-7.0046,-7.0057,-7.0106,-7.0122,-6.992,-6.992,-6.992,0,-6.795,-6.8163,-6.8277,-6.8422,-6.8521,-6.8609,-6.8745,-6.8852,-6.9065,-6.9131,-6.9126,-6.9443,-6.956,-6.977,-6.9804,-6.9875,-6.9916,-6.9883,-7.0036,-7.0048,-7.006,-7.0108,-7.0126,-6.9919,-6.9919,-6.9919,-6.9919,0,-6.8139,-6.8287,-6.8374,-6.858,-6.869,-6.8829,-6.8964,-6.9062,-6.9124,-6.9222,-6.9407,-6.9552,-6.9728,-6.9784,-6.9844,-7.0003,-6.9996,-7.0011,-6.9997,-7.0072,-7.0118,-7.0138,-6.9917,-6.9917,-6.9918,-6.9918,0,0,-6.8178,-6.8451,-6.848,-6.8576,-6.8779,-6.8895,-6.904,-6.9215,-6.9296,-6.9442,-6.9566,-6.9778,-6.9795,-6.9899,-6.9974,-7.0061,-7.0161,-7.0067,-7.0073,-7.0079,-7.0346,-7.0331,-7.035,-7.0193,-7.0197,-7.02,-7.0332,0,-6.8289,-6.8551,-6.8661,-6.8872,-6.901,-6.9099,-6.9226,-6.9364,-6.9461,-6.9592,-6.97,-6.9848,-6.9859,-6.9923,-7.0014,-7.0129,-7.0216,-7.0122,-7.0308,-7.0313,-7.0261,-7.0375,-7.0359,-7.0477,-7.0351,-7.0354,-7.0357,0,-6.8452,-6.8601,-6.8827,-6.9017,-6.9079,-6.919,-6.9361,-6.9486,-6.9646,-6.9711,-6.983,-6.9902,-7.0057,-7.0036,-7.0253,-7.0186,-7.027,-7.0339,-7.0346,-7.0365,-7.0337,-7.0395,-7.0517,-7.0533,-7.0387,-7.0384,-7.0382,0,-6.8456,-6.8714,-6.8884,-6.8963,-6.9189,-6.9266,-6.9363,-6.9521,-6.962,-6.977,-6.9836,-7.0001,-7.0091,-7.0218,-7.0333,-7.0307,-7.0539,-7.0527,-7.0596,-7.0593,-7.0638,-7.0633,-7.0772,-7.0695,-7.0695,-7.0695,-7.0694,0,-6.8567,-6.8701,-6.8889,-6.8992,-6.9147,-6.9273,-6.9422,-6.9525,-6.9666,-6.9791,-6.9879,-6.9995,-7.0141,-7.0276,-7.0367,-7.0533,-7.0573,-7.063,-7.0652,-7.0621,-7.0613,-7.0674,-7.0668,-7.0699,-7.0698,-7.0697,-7.0697,0,-6.8595,-6.8727,-6.8918,-6.9118,-6.9172,-6.9276,-6.9448,-6.9552,-6.9656,-6.9814,-6.9858,-7.002,-7.0184,-7.0313,-7.0526,-7.0588,-7.0762,-7.0788,-7.0708,-7.0719,-7.0781,-7.0772,-7.0962,-7.0993,-7.0897,-7.0897,-7.0898,0,-6.8655,-6.8762,-6.8975,-6.9067,-6.9164,-6.931,-6.9413,-6.9543,-6.9647,-6.984,-6.9921,-7.0092,-7.0235,-7.0493,-7.0629,-7.0794,-7.0823,-7.0878,-7.0847,-7.0814,-7.0822,-7.0813,-7.0825,-7.088,-7.088,-7.0881,-7.0881,0,-6.8748,-6.881,-6.8956,-6.9126,-6.9248,-6.9388,-6.9529,-6.9599,-6.9755,-6.9868,-7.0038,-7.0149,-7.0369,-7.0538,-7.0717,-7.0818,-7.0875,-7.0891,-7.0915,-7.0883,-7.0832,-7.0859,-7.0716,-7.0884,-7.0884,-7.0884,-7.0884,-7.0884,-6.8794,-6.8893,-6.906,-6.9221,-6.9343,-6.9474,-6.9583,-6.9703,-6.9847,-7.0037,-7.0106,-7.0281,-7.0442,-7.0689,-7.0792,-7.0931,-7.0934,-7.0969,-7.0978,-7.0984,-7.0981,-7.0813,-7.0964,-7.0964,-7.0964,-7.0964,-7.0965,0,-6.889,-6.9003,-6.9151,-6.9348,-6.9475,-6.9523,-6.9684,-6.9786,-6.994,-7.0086,-7.0227,-7.0424,-7.0589,-7.0741,-7.0914,-7.0996,-7.1027,-7.1037,-7.103,-7.1053,-7.0968,-7.0929,-7.1009,-7.1009,-7.1009,-7.1009,-7.1009,-7.1009,-6.8955,-6.9126,-6.9208,-6.9441,-6.9554,-6.9727,-6.9815,-6.9937,-7.0055,-7.0272,-7.0411,-7.051,-7.066,-7.0845,-7.0999,-7.104,-7.1098,-7.1101,-7.1148,-7.1065,-7.1058,-7.1052,-7.1016,-7.1113,-7.1113,-7.1221,-7.1222,-7.1223]},{"header":{"parameterUnit":"m.s-1","parameterCategory":1,"la1":30.2991,"la2":30.254,"lo1":-89.0895,"lo2":-89.0444,"dy":0.0017,"dx":0.0017,"nx":28,"ny":28,"refTime":"2023-10-23T03:00:00:Z","depth":0,"parameterNumber":3,"parameterNumberName":"V-component_of_WINDS"},"data":[0,0,0,0,0,0,0,0,0,0,0,0,0,0,0,0,0,0,0,0,0,0,0,0,0,0,0,0,0,0,0,0,0,0,0,0,0,0,0,0,0,0,0,0,0,0,0,0,0,0,0,0,0,0,0,0,0,0,1.5492,1.5494,0,1.5648,1.565,1.5652,1.5796,1.5798,1.58,1.5802,1.5954,1.5957,1.5959,0,0,0,0,0,0,0,0,0,0,0,0,0,1.5314,1.5317,1.5492,1.5494,1.5496,1.5648,1.565,1.5652,1.5796,1.5798,1.5801,1.5803,1.5954,1.5956,1.5959,0,0,0,0,0,0,0,0,0,0,0,0,0,1.5423,1.5318,1.5492,1.5587,1.5597,1.5647,1.565,1.5653,1.5796,1.5798,1.5801,1.5804,1.5953,1.5956,1.596,1.5927,0,0,1.597,1.5972,0,0,0,0,0,0,0,0,1.5416,1.5429,1.5571,1.558,1.5592,1.5706,1.5643,1.5744,1.5795,1.572,1.5802,1.5805,1.5869,1.588,1.5903,1.5934,1.5941,1.5971,1.5973,1.5974,1.5975,0,0,0,0,0,0,0,1.5409,1.5423,1.5554,1.5573,1.5585,1.5619,1.5638,1.5663,1.5777,1.5727,1.5738,1.5754,1.5875,1.5899,1.5907,1.5943,1.5971,1.5974,1.5976,1.5977,1.5958,1.5956,0,0,0,0,0,0,1.5388,1.5416,1.5549,1.5558,1.5509,1.562,1.5641,1.5666,1.5777,1.5797,1.5752,1.5761,1.5891,1.5903,1.5913,1.5885,1.5974,1.5978,1.598,1.5961,1.5958,1.5955,0,0,0,0,0,0,1.5383,1.5398,1.5543,1.549,1.5511,1.5621,1.5648,1.5668,1.5692,1.5797,1.5817,1.5756,1.5894,1.5908,1.5924,1.5892,1.5979,1.5983,1.5964,1.596,1.5956,1.5826,0,0,0,0,0,0,1.5377,1.5396,1.5386,1.5489,1.5514,1.5552,1.5646,1.5669,1.5699,1.5711,1.5805,1.5823,1.5897,1.5918,1.5927,1.5899,1.5985,1.5967,1.5962,1.5957,1.5834,1.5819,1.5805,0,0,0,0,0,1.5371,1.5341,1.5385,1.54,1.5504,1.555,1.5564,1.5651,1.5695,1.5686,1.5753,1.582,1.5893,1.5918,1.593,1.5902,1.597,1.5964,1.5958,1.5841,1.5822,1.5806,0,0,0,0,0,0,1.5229,1.5356,1.5406,1.541,1.5468,1.5574,1.5565,1.5628,1.5673,1.5683,1.5787,1.5807,1.5811,1.5858,1.5883,1.5877,1.5941,1.5937,1.5848,1.583,1.5816,1.5806,1.5988,0,0,0,0,0,1.5198,1.5227,1.5336,1.5328,1.5355,1.5454,1.5478,1.554,1.5604,1.5629,1.5697,1.5755,1.5792,1.5813,1.5852,1.5841,1.5864,1.5827,1.5813,1.58,1.5796,1.5796,1.5781,1.5935,1.5935,1.5935,0,0,1.5135,1.5208,1.5219,1.5302,1.5355,1.5381,1.5474,1.5497,1.5518,1.5632,1.5653,1.5704,1.5775,1.5778,1.5782,1.5816,1.5759,1.5793,1.5782,1.5785,1.5788,1.5773,1.576,1.5931,1.5932,1.5932,0,0,1.5034,1.5091,1.5093,1.5144,1.5224,1.529,1.529,1.5387,1.5427,1.5449,1.5536,1.556,1.562,1.5668,1.57,1.5617,1.5681,1.5626,1.5551,1.555,1.5537,1.5527,1.55,1.5488,1.5621,1.5621,1.5621,0,1.4945,1.499,1.5085,1.5104,1.5138,1.5244,1.5246,1.529,1.5377,1.5397,1.5435,1.5514,1.5569,1.5585,1.5565,1.5586,1.559,1.5617,1.5532,1.5523,1.5514,1.5489,1.5478,1.5614,1.5615,1.5615,1.5616,0,1.4878,1.4907,1.4898,1.4983,1.5015,1.5024,1.512,1.5141,1.52,1.5261,1.5283,1.5353,1.5409,1.5416,1.5473,1.5441,1.546,1.5513,1.5579,1.5491,1.547,1.5461,1.5604,1.5606,1.5608,1.561,0,0,1.4694,1.4831,1.4826,1.4867,1.4962,1.4986,1.4999,1.5057,1.5074,1.5129,1.5144,1.5192,1.5243,1.5279,1.5341,1.5339,1.5272,1.5393,1.5396,1.537,1.5242,1.5204,1.5191,1.5314,1.5312,1.5311,1.5237,0,1.461,1.4646,1.4731,1.4739,1.4768,1.4869,1.4881,1.494,1.4997,1.5029,1.5091,1.5125,1.5188,1.5211,1.5213,1.5279,1.5248,1.5285,1.5329,1.5329,1.5311,1.518,1.5139,1.5066,1.5229,1.5228,1.5227,0,1.4519,1.4571,1.4582,1.4678,1.4693,1.4703,1.4763,1.4792,1.486,1.4902,1.4943,1.5013,1.5032,1.5091,1.512,1.5143,1.5166,1.52,1.52,1.5209,1.5274,1.5188,1.5045,1.5035,1.5214,1.5215,1.5216,0,1.4387,1.4459,1.4477,1.4507,1.4618,1.4623,1.4668,1.474,1.4769,1.482,1.484,1.4891,1.492,1.4957,1.5039,1.5074,1.5058,1.5124,1.5094,1.5092,1.5088,1.5088,1.495,1.5098,1.5098,1.5098,1.5098,0,1.4287,1.429,1.4419,1.4429,1.4436,1.4533,1.4536,1.4591,1.4654,1.4676,1.4764,1.4783,1.4888,1.4918,1.4982,1.4996,1.5007,1.5042,1.5059,1.5036,1.5032,1.5054,1.5062,1.5095,1.5096,1.5096,1.5097,0,1.4142,1.4228,1.4254,1.4357,1.4382,1.4383,1.4471,1.4484,1.4546,1.4573,1.4585,1.4683,1.4723,1.4808,1.4869,1.4912,1.4913,1.4942,1.489,1.4902,1.4868,1.4871,1.4741,1.473,1.4881,1.488,1.4878,0,1.4074,1.408,1.4184,1.4206,1.425,1.4283,1.4315,1.4409,1.4438,1.4516,1.452,1.4567,1.4611,1.467,1.4746,1.4794,1.4826,1.4777,1.4834,1.4811,1.4829,1.4829,1.483,1.4765,1.4763,1.4761,1.476,0,1.3945,1.3988,1.4031,1.4088,1.4123,1.4171,1.4225,1.4237,1.4344,1.4371,1.4415,1.4449,1.4514,1.456,1.462,1.4665,1.473,1.4741,1.4738,1.4715,1.4686,1.4704,1.4859,1.4744,1.4746,1.4747,1.4748,1.4749,1.3839,1.385,1.3925,1.397,1.402,1.4068,1.4087,1.4152,1.4191,1.4253,1.4305,1.4344,1.4412,1.45,1.4541,1.4572,1.4604,1.4598,1.4597,1.4594,1.4585,1.4679,1.4583,1.4583,1.4584,1.4584,1.4585,0,1.3718,1.3772,1.3811,1.3885,1.3919,1.3978,1.404,1.4065,1.4099,1.4158,1.42,1.425,1.4295,1.4374,1.4426,1.4435,1.4467,1.4446,1.4448,1.4457,1.4552,1.4552,1.442,1.442,1.442,1.442,1.442,1.442,1.3659,1.3681,1.3731,1.3778,1.3832,1.3873,1.3903,1.3948,1.3996,1.4048,1.4087,1.4139,1.4206,1.4264,1.4307,1.4329,1.4345,1.4315,1.4347,1.4435,1.445,1.4465,1.4466,1.4317,1.4317,1.425,1.4249,1.4249]}]]